Regional Weather Roundup
Issued by NWS Wilmington, NC

Home | Current Version | Previous Version | Text Only | Print | Product List | Glossary On
Versions: 1 2 3 4 5 6 7 8 9 10 11 12 13 14 15 16 17 18 19 20 21 22 23 24 25 26 27
000
ASUS42 KILM 260813
RWRILM
RWRILM
REGIONAL HOURLY WEATHER ROUNDUP
NATIONAL WEATHER SERVICE WILMINGTON NC
400 AM EDT WED JUL 26 2017

NOTE: "FAIR" INDICATES FEW OR NO CLOUDS BELOW 12,000 FEET WITH NO
SIGNIFICANT WEATHER AND/OR OBSTRUCTIONS TO VISIBILITY.

...............WFO WILMINGTON COUNTY WARNING AREA...............

......COASTAL NC AND SC COUNTIES......

CITY           SKY/WX    TMP DP  RH WIND       PRES   REMARKS
WILMINGTON     CLOUDY    78  73  84 E10       30.08S
N MYRTLE BEACH MOCLDY    77  76  96 NE3       30.05S
MYRTLE BEACH   CLOUDY    79  73  82 CALM      30.07S

......INLAND NC AND SC COUNTIES.......

CITY           SKY/WX    TMP DP  RH WIND       PRES   REMARKS
LUMBERTON      CLOUDY    76  75  97 E8        30.08S
ELIZABETHTOWN  NOT AVBL
WHITEVILLE     MOCLDY    75  74  95 NE5       30.07S
FLORENCE       MOCLDY    76  73  91 N6        30.07S
DARLINGTON     CLEAR     75  74  96 NE5       30.08S
KINGSTREE      FAIR      73  72  94 CALM      30.06F
HARTSVILLE     FAIR      73  70  88 NW3       30.07F
BENNETTSVILLE  FAIR      77  73  88 NE7       30.08S
CONWAY         FAIR      72  72 100 CALM      30.07R FOG
GEORGETOWN     FAIR      75  73  94 NW3       30.06S
MARION         FAIR      73  72  94 CALM      30.06S

....................REST OF NORTH CAROLINA......................

.........EASTERN NC.........

CITY           SKY/WX    TMP DP  RH WIND       PRES   REMARKS
CAPE HATTERAS  CLOUDY    76  69  79 E6        30.11F
JACKSONVILLE   CLOUDY    72  70  93 NE6       30.12R
MOREHEAD CITY  CLOUDY    78  69  73 E9G17     30.11R
KENANSVILLE    CLOUDY    75  68  78 CALM      30.12S
NEW BERN       CLOUDY    76  68  76 NE7       30.12S
ELIZABETH CITY CLEAR     71  70  96 NE7       30.14S

.........CENTRAL NC.........

CITY           SKY/WX    TMP DP  RH WIND       PRES   REMARKS
RALEIGH DURHAM PTCLDY    72  68  87 NE5       30.15R
ROCKY MOUNT    PTCLDY    71  67  87 NE3       30.14S
ROANOKE RAPIDS NOT AVBL
FAYETTEVILLE   CLOUDY   N/A N/A N/A NE8       30.11R
HOFFMAN        CLOUDY    75  73  94 E8        30.10S

.........WESTERN NC.........

CITY           SKY/WX    TMP DP  RH WIND       PRES   REMARKS
CHARLOTTE      MOCLDY    80  70  71 E6        30.11S
GREENSBORO     CLOUDY    72  67  84 NE8       30.16S
HICKORY        NOT AVBL
BOONE          NOT AVBL
ASHEVILLE      NOT AVBL

.....................REST OF SOUTH CAROLINA.....................

.........EASTERN SC.........

CITY           SKY/WX    TMP DP  RH WIND       PRES   REMARKS
CHARLESTON     MOCLDY    75  72  90 CALM      30.05S
BEAUFORT MCAS  PTCLDY    75  75 100 N3        30.06F
HILTON HEAD    PTCLDY    77  77 100 N3        30.06F

.........CENTRAL SC.........

CITY           SKY/WX    TMP DP  RH WIND       PRES   REMARKS
COLUMBIA       CLOUDY    75  71  87 CALM      30.05F
ORANGEBURG     MOCLDY    75  72  90 CALM      30.06S
SUMTER SHAW    CLOUDY    74  71  92 CALM      30.04S

.........WESTERN SC.........

CITY           SKY/WX    TMP DP  RH WIND       PRES   REMARKS
GREENVILLE     NOT AVBL
ROCK HILL      PTCLDY    76  73  91 CALM      30.11S
ANDERSON       CLEAR     75  71  87 N5        30.09S
CLEMSON        NOT AVBL
GREENWOOD      CLEAR     73  71  93 CALM      30.10S


...................COASTAL AND OFFSHORE REPORTS..................

................LOCAL PIERS AND NC RESERVE................


STATION/POSITION TIME  SKY/WX   TEMP    WIND        PRES    VSBY
                                AIR SEA DIR/SP/G
                 (UTC)          (F)     (DEG/KT/KT) (MB)    (MI)
JOHNY MRCER PIER 0748            80 82   60/ 19/ 21 1017.7R
NC RESRV MASNBRO 0645            80      50/  1     1019.0
OCEAN CREST PIER NOT AVBL
SPRINGMAID  PIER 0742                               1017.2S


................COASTAL AND OFFSHORE BUOYS................


STATION/POSITION TIME  SKY/WX   TEMP    WIND        PRES    VSBY
                                AIR SEA DIR/SP/G
                 (UTC)          (F)     (DEG/KT/KT) (MB)    (MI)
DIMNDSHOAL 41025 0750            81 84   50/ 14/ 16 1019.2F
WVE H/P(F/S)=  3/ 5 SWL H/P/D(F/S/D)=  2/ 70/11

CAPE LOOKOUT     0800            79      60/ 19/ 21 1019.2R
ONSLOW BAY 41036 NOT AVBL
ONSLOW BAY 41064 0708            79 84   70/ 17/ 21 1018.5F
ONSLOW BAY 41159 0743               83                N/A
WVE H/P(F/S)=  5/ 5

MASNBO INL 41110 0759               83                N/A
WVE H/P(F/S)=  3/ 6

WILM HARBR 41108 0800               82                N/A
WVE H/P(F/S)=  2/ 6

27SE WRITB 41037 0708            81 83   90/ 14/ 19 1017.9F
FRYING PAN 41013 0800            81 82   40/  4/  4 1017.8
SUNST NRSH 41024 0708            80 83   80/  6/  8 1017.7F
CAPRS NRSH 41029 0708            79 84  340/  8/ 12 1017.4F
EDISTO     41004 0750            81 83  340/  4/  6 1017.0F
WVE H/P(F/S)=  2/ 8 SWL H/P/D(F/S/D)=  2/110/ 8



..........OFFSHORE BUOYS BEYOND 100 NM OFFSHORE...........
.....IN A TRIANGLE---HAT TO BERMUDA TO BAHAMAS TO HAT.....


STATION/POSITION TIME  SKY/WX   TEMP    WIND        PRES    VSBY
                                AIR SEA DIR/SP/G
                 (UTC)          (F)     (DEG/KT/KT) (MB)    (MI)
150E HAT   41001 0800            78 81  110/  4/  4 1018.8
W BERMUDA  41048 0800            79 83  280/ 16/ 23 1020.1
ATLANTIC S 41049 0750            81 84  120/ 10/ 12 1021.1F
WVE H/P(F/S)=  5/ 6 SWL H/P/D(F/S/D)=  5/110/ 6

E BAHAMAS  41046 0800            83 84   90/ 12/ 16 1018.3
NE BAHAMAS 41047 0750            83 85  130/  8/ 10 1019.9F
WVE H/P(F/S)=  3/ 6 SWL H/P/D(F/S/D)=  3/150/ 6

120E CANVRL41010 0800            84 84  170/ 12/ 14 1018.3

END




USA.gov is the U.S. government's official web portal to all federal, state and local government web resources and services.